This is the latest recevied weather packets stored in our database for station/object OE5RBO. If no packets are shown the sender has not sent any weather packets the latest 10 day(s).
| Time | Temp. | Humidity | Pressure | Rain* | Wind** | Luminosity | Snow |
|---|---|---|---|---|---|---|---|
| 1777573475 | 11.11° C | 52% | 1025.8 hPa | 0.25 mm | - | - | - |
| 1777572875 | 11.67° C | 49% | 1025.8 hPa | 0.25 mm | - | - | - |
| 1777572275 | 12.22° C | 48% | 1025.7 hPa | 0.25 mm | - | - | - |
| 1777571674 | 12.22° C | 47% | 1025.6 hPa | 0.25 mm | - | - | - |
| 1777571075 | 12.78° C | 46% | 1025.6 hPa | 0.25 mm | - | - | - |
| 1777570475 | 12.78° C | 44% | 1025.5 hPa | 0.25 mm | - | - | - |
| 1777569873 | 12.78° C | 43% | 1025.5 hPa | 0.25 mm | - | - | - |
| 1777569273 | 13.33° C | 42% | 1025.5 hPa | 0.25 mm | - | - | - |
| 1777568674 | 13.33° C | 41% | 1025.4 hPa | 0.25 mm | - | - | - |
| 1777568073 | 13.89° C | 42% | 1025.5 hPa | 0.25 mm | - | - | - |
| 1777567473 | 13.89° C | 40% | 1025.5 hPa | 0.25 mm | - | - | - |
| 1777566873 | 13.89° C | 43% | 1025.4 hPa | 0.25 mm | - | - | - |
| 1777566272 | 14.44° C | 41% | 1025.5 hPa | 0.25 mm | - | - | - |
| 1777565671 | 14.44° C | 41% | 1025.6 hPa | 0.25 mm | - | - | - |
| 1777565070 | 13.89° C | 44% | 1025.5 hPa | 0.25 mm | - | - | - |
| 1777564470 | 13.89° C | 39% | 1025.6 hPa | 0.25 mm | - | - | - |
| 1777563871 | 14.44° C | 40% | 1025.6 hPa | 0.25 mm | - | - | - |
| 1777563269 | 13.33° C | 39% | 1025.6 hPa | 0.25 mm | - | - | - |
| 1777562670 | 14.44° C | 39% | 1025.6 hPa | 0.25 mm | - | - | - |
| 1777562069 | 15° C | 39% | 1025.6 hPa | 0.25 mm | - | - | - |
| 1777561469 | 15.56° C | 37% | 1025.6 hPa | 0.25 mm | - | - | - |
| 1777560869 | 15° C | 37% | 1025.6 hPa | 0.25 mm | - | - | - |
| 1777560267 | 15° C | 35% | 1025.6 hPa | 0.25 mm | - | - | - |
| 1777559668 | 15° C | 35% | 1025.6 hPa | 0.25 mm | - | - | - |
| 1777559068 | 15.56° C | 31% | 1025.8 hPa | 0.25 mm | - | - | - |
* Rain since midnight (hover to see other rain measurements)
** Current wind speed in m/s (hover to see current wind gust speed)